• Em Portugal
  • Lista de países
  • Para 7 dias
  • Temperatura da água
  • Mapas de satélite
  • Mapa do tempo
  • Widgets de tempo
  • user-avatar
    Iniciar Sessão

    Previsão horária em Oran

    Hoje, 15 Julho, Domingo

    Tempo Temperatura Precipitação Vento Pressão Humidade
    00:00 +28°C° 0 mm 3 m/s 752 mmHg 58%
    01:00 +27°C° 0 mm 3 m/s 752 mmHg 59%
    02:00 +27°C° 0 mm 4 m/s 752 mmHg 60%
    03:00 +27°C° 0 mm 4 m/s 752 mmHg 62%
    04:00 +27°C° 0 mm 4 m/s 752 mmHg 62%
    05:00 +27°C° 0 mm 4 m/s 752 mmHg 62%
    06:00 +26°C° 0 mm 4 m/s 752 mmHg 62%
    07:00 +27°C° 0 mm 5 m/s 752 mmHg 58%
    08:00 +28°C° 0 mm 5 m/s 752 mmHg 54%
    09:00 +29°C° 0 mm 6 m/s 752 mmHg 49%
    10:00 +30°C° 0 mm 6 m/s 752 mmHg 44%
    11:00 +32°C° 0 mm 5 m/s 752 mmHg 39%
    12:00 +34°C° 0 mm 6 m/s 752 mmHg 34%
    13:00 +34°C° 0 mm 7 m/s 751 mmHg 34%
    14:00 +33°C° 0 mm 7 m/s 751 mmHg 34%
    15:00 +33°C° 0 mm 7 m/s 751 mmHg 34%
    16:00 +32°C° 0 mm 7 m/s 751 mmHg 34%
    17:00 +30°C° 0 mm 7 m/s 751 mmHg 35%
    18:00 +29°C° 0 mm 7 m/s 751 mmHg 35%
    19:00 +29°C° 0 mm 7 m/s 751 mmHg 35%
    20:00 +29°C° 0 mm 7 m/s 752 mmHg 34%
    21:00 +28°C° 0 mm 7 m/s 752 mmHg 34%
    22:00 +28°C° 0 mm 7 m/s 753 mmHg 35%
    23:00 +28°C° 0 mm 7 m/s 753 mmHg 36%

    Amanhã, 16 Julho, Segunda-feira

    Tempo Temperatura Precipitação Vento Pressão Humidade
    00:00 +27°C° 0 mm 7 m/s 753 mmHg 36%
    01:00 +27°C° 0 mm 7 m/s 753 mmHg 39%
    02:00 +26°C° 0 mm 7 m/s 753 mmHg 42%
    03:00 +26°C° 0 mm 7 m/s 753 mmHg 45%
    04:00 +26°C° 0 mm 6 m/s 753 mmHg 45%
    05:00 +26°C° 0 mm 6 m/s 754 mmHg 45%
    06:00 +25°C° 0 mm 5 m/s 754 mmHg 46%
    07:00 +27°C° 0 mm 5 m/s 754 mmHg 42%
    08:00 +28°C° 0 mm 5 m/s 754 mmHg 38%
    09:00 +29°C° 0 mm 5 m/s 754 mmHg 34%
    10:00 +30°C° 0 mm 5 m/s 754 mmHg 33%
    11:00 +32°C° 0 mm 5 m/s 754 mmHg 31%
    12:00 +33°C° 0 mm 5 m/s 754 mmHg 29%
    13:00 +33°C° 0 mm 4 m/s 753 mmHg 28%
    14:00 +34°C° 0 mm 4 m/s 753 mmHg 28%
    15:00 +34°C° 0 mm 4 m/s 752 mmHg 28%
    16:00 +33°C° 0 mm 3 m/s 752 mmHg 28%
    17:00 +32°C° 0 mm 2 m/s 752 mmHg 29%
    18:00 +31°C° 0 mm 2 m/s 751 mmHg 30%
    19:00 +30°C° 0 mm 1 m/s 752 mmHg 31%
    20:00 +30°C° 0 mm 1 m/s 752 mmHg 32%
    21:00 +29°C° 0 mm 1 m/s 752 mmHg 33%
    22:00 +29°C° 0 mm 1 m/s 752 mmHg 34%
    23:00 +29°C° 0 mm 1 m/s 752 mmHg 35%

    Depois de amanhã, 17 Julho, Terça-feira

    Tempo Temperatura Precipitação Vento Pressão Humidade
    00:00 +28°C° 0 mm 1 m/s 752 mmHg 35%
    01:00 +28°C° 0 mm 1 m/s 752 mmHg 36%
    02:00 +28°C° 0 mm 1 m/s 751 mmHg 37%
    03:00 +27°C° 0 mm 2 m/s 751 mmHg 37%
    04:00 +27°C° 0 mm 2 m/s 751 mmHg 38%
    05:00 +27°C° 0 mm 2 m/s 751 mmHg 38%
    06:00 +27°C° 0 mm 3 m/s 751 mmHg 39%
    07:00 +29°C° 0 mm 3 m/s 751 mmHg 34%
    08:00 +31°C° 0 mm 3 m/s 751 mmHg 30%
    09:00 +34°C° 0 mm 3 m/s 751 mmHg 25%
    10:00 +36°C° 0 mm 3 m/s 751 mmHg 22%
    11:00 +37°C° 0 mm 4 m/s 751 mmHg 20%
    12:00 +40°C° 0 mm 4 m/s 750 mmHg 18%
    13:00 +40°C° 0 mm 5 m/s 750 mmHg 18%
    14:00 +41°C° 0 mm 5 m/s 749 mmHg 19%
    15:00 +41°C° 0 mm 6 m/s 749 mmHg 19%
    16:00 +40°C° 0 mm 5 m/s 749 mmHg 21%
    17:00 +39°C° 0 mm 5 m/s 748 mmHg 22%
    18:00 +37°C° 0 mm 4 m/s 748 mmHg 24%
    19:00 +36°C° 0 mm 4 m/s 749 mmHg 28%
    20:00 +34°C° 0 mm 3 m/s 749 mmHg 31%
    21:00 +33°C° 0 mm 3 m/s 750 mmHg 35%
    22:00 +31°C° 0 mm 3 m/s 749 mmHg 38%
    23:00 +30°C° 0 mm 2 m/s 749 mmHg 41%

    18 Julho, Quarta-feira

    Tempo Temperatura Precipitação Vento Pressão Humidade
    00:00 +30°C° 0 mm 2 m/s 749 mmHg 44%
    01:00 +29°C° 0 mm 2 m/s 749 mmHg 48%
    02:00 +28°C° 0 mm 2 m/s 749 mmHg 51%
    03:00 +28°C° 0 mm 2 m/s 748 mmHg 54%
    04:00 +27°C° 0 mm 2 m/s 748 mmHg 57%
    05:00 +27°C° 0 mm 2 m/s 749 mmHg 59%
    06:00 +27°C° 0 mm 2 m/s 749 mmHg 61%
    07:00 +29°C° 0 mm 2 m/s 749 mmHg 55%
    08:00 +30°C° 0 mm 2 m/s 749 mmHg 48%
    09:00 +32°C° 0 mm 2 m/s 750 mmHg 42%
    10:00 +34°C° 0 mm 3 m/s 750 mmHg 39%
    11:00 +36°C° 0 mm 3 m/s 750 mmHg 36%
    12:00 +37°C° 0 mm 3 m/s 750 mmHg 33%
    13:00 +37°C° 0 mm 4 m/s 750 mmHg 33%
    14:00 +37°C° 0 mm 4 m/s 749 mmHg 33%
    15:00 +37°C° 0 mm 4 m/s 749 mmHg 33%
    16:00 +36°C° 0 mm 3 m/s 749 mmHg 36%
    17:00 +35°C° 0 mm 3 m/s 749 mmHg 38%
    18:00 +34°C° 0 mm 2 m/s 749 mmHg 41%
    19:00 +32°C° 0 mm 2 m/s 750 mmHg 44%
    20:00 +32°C° 0 mm 2 m/s 750 mmHg 47%
    21:00 +31°C° 0 mm 2 m/s 751 mmHg 50%
    22:00 +31°C° 0 mm 1 m/s 750 mmHg 50%
    23:00 +31°C° 0 mm 1 m/s 750 mmHg 49%

    19 Julho, Quinta-feira

    Tempo Temperatura Precipitação Vento Pressão Humidade
    00:00 +31°C° 0 mm 1 m/s 750 mmHg 48%
    01:00 +30°C° 0 mm 1 m/s 750 mmHg 51%
    02:00 +30°C° 0 mm 2 m/s 750 mmHg 53%
    03:00 +29°C° 0 mm 2 m/s 750 mmHg 55%
    04:00 +29°C° 0 mm 2 m/s 750 mmHg 54%
    05:00 +30°C° 0 mm 2 m/s 750 mmHg 53%
    06:00 +30°C° 0 mm 2 m/s 750 mmHg 51%
    07:00 +31°C° 0 mm 2 m/s 750 mmHg 46%
    08:00 +33°C° 0 mm 3 m/s 750 mmHg 41%
    09:00 +34°C° 0 mm 3 m/s 751 mmHg 35%
    10:00 +35°C° 0 mm 4 m/s 751 mmHg 32%
    11:00 +36°C° 0 mm 4 m/s 750 mmHg 29%
    12:00 +37°C° 0 mm 4 m/s 750 mmHg 26%
    13:00 +37°C° 0 mm 4 m/s 750 mmHg 24%
    14:00 +37°C° 0 mm 4 m/s 750 mmHg 23%
    15:00 +37°C° 0 mm 4 m/s 749 mmHg 22%
    16:00 +36°C° 0 mm 4 m/s 749 mmHg 22%
    17:00 +36°C° 0 mm 4 m/s 749 mmHg 23%
    18:00 +35°C° 0 mm 4 m/s 749 mmHg 23%
    19:00 +35°C° 0 mm 4 m/s 749 mmHg 23%
    20:00 +34°C° 0 mm 5 m/s 750 mmHg 23%
    21:00 +34°C° 0 mm 5 m/s 750 mmHg 24%
    22:00 +34°C° 0 mm 4 m/s 750 mmHg 24%
    23:00 +34°C° 0 mm 4 m/s 750 mmHg 24%

    20 Julho, Sexta-feira

    Tempo Temperatura Precipitação Vento Pressão Humidade
    00:00 +34°C° 0 mm 4 m/s 750 mmHg 25%
    01:00 +33°C° 0 mm 4 m/s 750 mmHg 27%
    02:00 +32°C° 0 mm 4 m/s 750 mmHg 30%
    03:00 +30°C° 0 mm 5 m/s 749 mmHg 32%
    04:00 +30°C° 0,1 mm 5 m/s 750 mmHg 32%
    05:00 +30°C° 0,1 mm 5 m/s 750 mmHg 32%
    06:00 +29°C° 0,1 mm 4 m/s 750 mmHg 32%
    07:00 +30°C° 0 mm 4 m/s 750 mmHg 31%
    08:00 +32°C° 0 mm 4 m/s 750 mmHg 29%
    09:00 +33°C° 0 mm 4 m/s 751 mmHg 27%
    10:00 +34°C° 0,1 mm 5 m/s 750 mmHg 26%
    11:00 +35°C° 0,1 mm 5 m/s 750 mmHg 25%
    12:00 +36°C° 0,1 mm 5 m/s 750 mmHg 24%
    13:00 +36°C° 0 mm 5 m/s 750 mmHg 25%
    14:00 +36°C° 0 mm 5 m/s 750 mmHg 25%
    15:00 +36°C° 0 mm 5 m/s 749 mmHg 26%
    16:00 +35°C° 0 mm 5 m/s 749 mmHg 27%
    17:00 +35°C° 0 mm 5 m/s 749 mmHg 29%
    18:00 +34°C° 0 mm 4 m/s 749 mmHg 30%
    19:00 +34°C° 0 mm 4 m/s 749 mmHg 29%
    20:00 +34°C° 0 mm 4 m/s 750 mmHg 28%
    21:00 +33°C° 0 mm 4 m/s 750 mmHg 27%
    22:00 +33°C° 0 mm 4 m/s 750 mmHg 28%
    23:00 +33°C° 0 mm 4 m/s 750 mmHg 28%
    Mostrar mais